• In Hungary
  • List of Countries
  • For 7 days
  • Water Temperature
  • Satellite Maps
  • Weather Map
  • News
  • Weather Widgets
  • user-avatar
    Login

    Hourly Weather Pasieka

    Today, 23 June, Saturday

    Time Temperature Precipitation Wind Pressure Humidity
    00:00 +9°C° 0 mm 3 mps 752 mmHg 86%
    01:00 +9°C° 0 mm 3 mps 751 mmHg 86%
    02:00 +9°C° 0 mm 3 mps 751 mmHg 89%
    03:00 +8°C° 0 mm 3 mps 751 mmHg 91%
    04:00 +8°C° 0 mm 3 mps 751 mmHg 94%
    05:00 +10°C° 0.1 mm 4 mps 751 mmHg 88%
    06:00 +11°C° 0.1 mm 4 mps 751 mmHg 83%
    07:00 +13°C° 0 mm 4 mps 751 mmHg 76%
    08:00 +13°C° 0.2 mm 5 mps 751 mmHg 73%
    09:00 +14°C° 0.2 mm 5 mps 751 mmHg 71%
    10:00 +14°C° 0.2 mm 5 mps 750 mmHg 68%
    11:00 +14°C° 0.3 mm 5 mps 750 mmHg 67%
    12:00 +15°C° 0.3 mm 5 mps 750 mmHg 66%
    13:00 +15°C° 0.3 mm 5 mps 750 mmHg 65%
    14:00 +15°C° 0.4 mm 5 mps 750 mmHg 66%
    15:00 +15°C° 0.4 mm 5 mps 750 mmHg 67%
    16:00 +16°C° 0.4 mm 5 mps 750 mmHg 68%
    17:00 +15°C° 0.3 mm 5 mps 750 mmHg 72%
    18:00 +14°C° 0.3 mm 4 mps 750 mmHg 76%
    19:00 +14°C° 0.3 mm 3 mps 750 mmHg 80%
    20:00 +13°C° 0.1 mm 3 mps 750 mmHg 83%
    21:00 +12°C° 0.1 mm 3 mps 750 mmHg 85%
    22:00 +11°C° 0.1 mm 3 mps 750 mmHg 88%
    23:00 +10°C° 0 mm 3 mps 750 mmHg 89%

    Tomorrow, 24 June, Sunday

    Time Temperature Precipitation Wind Pressure Humidity
    00:00 +9°C° 0 mm 3 mps 750 mmHg 90%
    01:00 +9°C° 0 mm 3 mps 750 mmHg 91%
    02:00 +9°C° 0 mm 3 mps 750 mmHg 92%
    03:00 +9°C° 0 mm 3 mps 750 mmHg 93%
    04:00 +9°C° 0 mm 3 mps 750 mmHg 94%
    05:00 +10°C° 0 mm 4 mps 750 mmHg 91%
    06:00 +11°C° 0 mm 4 mps 750 mmHg 88%
    07:00 +12°C° 0 mm 5 mps 750 mmHg 85%
    08:00 +13°C° 0.2 mm 5 mps 750 mmHg 81%
    09:00 +14°C° 0.2 mm 5 mps 750 mmHg 76%
    10:00 +16°C° 0.2 mm 5 mps 750 mmHg 71%
    11:00 +16°C° 0.9 mm 5 mps 750 mmHg 71%
    12:00 +16°C° 0.9 mm 5 mps 750 mmHg 72%
    13:00 +16°C° 0.9 mm 5 mps 750 mmHg 72%
    14:00 +17°C° 1.2 mm 4 mps 750 mmHg 74%
    15:00 +17°C° 1.2 mm 4 mps 750 mmHg 76%
    16:00 +16°C° 1.2 mm 3 mps 750 mmHg 78%
    17:00 +16°C° 0.2 mm 3 mps 750 mmHg 79%
    18:00 +16°C° 0.2 mm 2 mps 750 mmHg 81%
    19:00 +16°C° 0.2 mm 2 mps 750 mmHg 82%
    20:00 +14°C° 0.1 mm 2 mps 751 mmHg 85%
    21:00 +13°C° 0.1 mm 2 mps 751 mmHg 88%
    22:00 +12°C° 0.1 mm 2 mps 751 mmHg 91%
    23:00 +12°C° 0 mm 2 mps 751 mmHg 91%

    Day after tomorrow, 25 June, Monday

    Time Temperature Precipitation Wind Pressure Humidity
    00:00 +11°C° 0 mm 1 mps 751 mmHg 91%
    01:00 +11°C° 0 mm 1 mps 751 mmHg 91%
    02:00 +10°C° 0 mm 1 mps 751 mmHg 91%
    03:00 +10°C° 0 mm 1 mps 751 mmHg 90%
    04:00 +10°C° 0 mm 1 mps 751 mmHg 90%
    05:00 +12°C° 0 mm 1 mps 752 mmHg 85%
    06:00 +13°C° 0 mm 1 mps 752 mmHg 79%
    07:00 +15°C° 0 mm 1 mps 752 mmHg 74%
    08:00 +16°C° 0.1 mm 2 mps 752 mmHg 71%
    09:00 +17°C° 0.1 mm 2 mps 753 mmHg 68%
    10:00 +18°C° 0.1 mm 3 mps 753 mmHg 65%
    11:00 +19°C° 0.2 mm 3 mps 753 mmHg 62%
    12:00 +19°C° 0.2 mm 3 mps 753 mmHg 59%
    13:00 +20°C° 0.2 mm 4 mps 753 mmHg 56%
    14:00 +20°C° 0.2 mm 4 mps 753 mmHg 57%
    15:00 +20°C° 0.2 mm 4 mps 753 mmHg 57%
    16:00 +21°C° 0.2 mm 4 mps 753 mmHg 58%
    17:00 +20°C° 0.2 mm 3 mps 753 mmHg 64%
    18:00 +19°C° 0.2 mm 2 mps 753 mmHg 70%
    19:00 +18°C° 0.2 mm 2 mps 753 mmHg 76%
    20:00 +18°C° 0.1 mm 1 mps 754 mmHg 79%
    21:00 +15°C° 0.1 mm 1 mps 754 mmHg 82%
    22:00 +14°C° 0.1 mm 1 mps 754 mmHg 85%
    23:00 +14°C° 0 mm 1 mps 754 mmHg 86%

    26 June, Tuesday

    Time Temperature Precipitation Wind Pressure Humidity
    00:00 +13°C° 0 mm 1 mps 754 mmHg 87%
    01:00 +13°C° 0 mm 1 mps 755 mmHg 88%
    02:00 +12°C° 0 mm 1 mps 755 mmHg 89%
    03:00 +12°C° 0 mm 1 mps 755 mmHg 89%
    04:00 +12°C° 0 mm 1 mps 755 mmHg 90%
    05:00 +14°C° 0 mm 1 mps 755 mmHg 84%
    06:00 +15°C° 0 mm 1 mps 755 mmHg 78%
    07:00 +18°C° 0 mm 1 mps 755 mmHg 72%
    08:00 +18°C° 0 mm 2 mps 755 mmHg 65%
    09:00 +20°C° 0 mm 2 mps 755 mmHg 58%
    10:00 +21°C° 0 mm 2 mps 755 mmHg 51%
    11:00 +21°C° 0.1 mm 3 mps 755 mmHg 53%
    12:00 +21°C° 0.1 mm 3 mps 755 mmHg 55%
    13:00 +21°C° 0.1 mm 4 mps 755 mmHg 56%
    14:00 +21°C° 0.1 mm 4 mps 755 mmHg 56%
    15:00 +22°C° 0.1 mm 4 mps 755 mmHg 56%
    16:00 +22°C° 0.1 mm 4 mps 755 mmHg 55%
    17:00 +21°C° 0 mm 3 mps 755 mmHg 60%
    18:00 +20°C° 0 mm 3 mps 755 mmHg 66%
    19:00 +20°C° 0 mm 2 mps 755 mmHg 71%
    20:00 +18°C° 0 mm 2 mps 755 mmHg 76%
    21:00 +17°C° 0 mm 2 mps 755 mmHg 81%
    22:00 +15°C° 0 mm 2 mps 755 mmHg 86%
    23:00 +14°C° 0 mm 2 mps 755 mmHg 88%

    27 June, Wednesday

    Time Temperature Precipitation Wind Pressure Humidity
    00:00 +13°C° 0 mm 2 mps 755 mmHg 90%
    01:00 +13°C° 0 mm 2 mps 755 mmHg 92%
    02:00 +12°C° 0 mm 2 mps 755 mmHg 93%
    03:00 +12°C° 0 mm 2 mps 755 mmHg 94%
    04:00 +10°C° 0 mm 2 mps 755 mmHg 95%
    05:00 +13°C° 0 mm 2 mps 755 mmHg 90%
    06:00 +14°C° 0 mm 3 mps 755 mmHg 84%
    07:00 +17°C° 0 mm 3 mps 756 mmHg 78%
    08:00 +18°C° 0.1 mm 3 mps 755 mmHg 73%
    09:00 +19°C° 0.1 mm 3 mps 755 mmHg 68%
    10:00 +21°C° 0.1 mm 3 mps 755 mmHg 63%
    11:00 +21°C° 0.7 mm 3 mps 755 mmHg 63%
    12:00 +21°C° 0.7 mm 4 mps 754 mmHg 63%
    13:00 +22°C° 0.7 mm 4 mps 754 mmHg 63%
    14:00 +22°C° 0.6 mm 4 mps 754 mmHg 64%
    15:00 +22°C° 0.6 mm 4 mps 754 mmHg 64%
    16:00 +22°C° 0.6 mm 4 mps 754 mmHg 64%
    17:00 +21°C° 0.3 mm 4 mps 754 mmHg 68%
    18:00 +20°C° 0.3 mm 4 mps 754 mmHg 73%
    19:00 +19°C° 0.3 mm 3 mps 754 mmHg 77%
    20:00 +18°C° 0.1 mm 3 mps 754 mmHg 81%
    21:00 +17°C° 0.1 mm 3 mps 754 mmHg 84%
    22:00 +15°C° 0.1 mm 4 mps 754 mmHg 88%
    23:00 +14°C° 0 mm 3 mps 754 mmHg 90%

    28 June, Thursday

    Time Temperature Precipitation Wind Pressure Humidity
    00:00 +14°C° 0 mm 3 mps 754 mmHg 92%
    01:00 +13°C° 0 mm 3 mps 754 mmHg 94%
    02:00 +13°C° 0.1 mm 3 mps 754 mmHg 94%
    03:00 +14°C° 0.1 mm 3 mps 754 mmHg 94%
    04:00 +14°C° 0.1 mm 4 mps 754 mmHg 95%
    05:00 +14°C° 0.8 mm 4 mps 754 mmHg 95%
    06:00 +15°C° 0.8 mm 4 mps 753 mmHg 94%
    07:00 +15°C° 0.8 mm 4 mps 753 mmHg 94%
    08:00 +17°C° 1.8 mm 4 mps 753 mmHg 94%
    09:00 +17°C° 1.8 mm 4 mps 752 mmHg 94%
    10:00 +17°C° 1.8 mm 5 mps 752 mmHg 93%
    11:00 +17°C° 3 mm 5 mps 751 mmHg 93%
    12:00 +19°C° 3 mm 4 mps 750 mmHg 92%
    13:00 +20°C° 3 mm 4 mps 749 mmHg 92%
    14:00 +20°C° 2.3 mm 4 mps 749 mmHg 90%
    15:00 +21°C° 2.3 mm 5 mps 748 mmHg 88%
    16:00 +22°C° 2.3 mm 6 mps 748 mmHg 86%
    17:00 +22°C° 2.8 mm 6 mps 747 mmHg 87%
    18:00 +21°C° 2.8 mm 6 mps 747 mmHg 88%
    19:00 +21°C° 2.8 mm 6 mps 747 mmHg 89%
    20:00 +21°C° 2.6 mm 6 mps 747 mmHg 91%
    21:00 +20°C° 2.6 mm 6 mps 747 mmHg 92%
    22:00 +20°C° 2.6 mm 6 mps 746 mmHg 94%
    23:00 +20°C° 0.9 mm 6 mps 746 mmHg 94%
    Show more